Weather History for Cocoa Beach, FL

Change the Weather History Date:

Saturday, October 11, 2014

  Actual Average Record
Temperature  
Mean Temperature 82 °F -  
Max Temperature 84 °F 81 °F 89 °F (2002)
Min Temperature 79 °F 72 °F 68 °F (1996)
Cooling Degree Days 16    
Growing Degree Days 32 (Base 50)    
Moisture  
Dew Point 72 °F    
Average Humidity 72    
Maximum Humidity 79    
Minimum Humidity 63    
Precipitation  
Precipitation 0.00 in - - ()
Sea Level Pressure  
Sea Level Pressure 30.03 in    
Wind  
Wind Speed 8 mph (East)    
Max Wind Speed 12 mph    
Max Gust Speed -    
Visibility 10 miles    
Events      
Averages and records for this station are not official NWS values.
T = Trace of Precipitation, MM = Missing Value Source: NWS Daily Summary

Daily Weather History Graph

Daily Weather History Graph

Search for Another Location

Airport:

Trip Planner

Search our weather history database for the weather conditions in past years. The results will help you decide how hot, cold, wet, or windy it might be!

Date:

Astronomy

Oct. 11, 2014 Rise Set
Actual Time 7:20 AM EDT 6:57 PM EDT
Civil Twilight 6:57 AM EDT 7:20 PM EDT
Nautical Twilight 6:29 AM EDT 7:48 PM EDT
Astronomical Twilight 6:02 AM EDT 8:15 PM EDT
Moon 9:38 PM EDT (10/11) 10:28 AM EDT (10/11)
Length of Visible Light 12h 23m
Length of Day
11h 36m
Waning Gibbous, 87% of the Moon is Illuminated
Oct 11
Waning Gibbous
Oct 15
Last Quarter
Oct 23
New
Oct 30
First Quarter
Nov 6
Full

Hourly Weather History & Observations

Time (EDT) Temp. Heat Index Dew Point Humidity Pressure Visibility Wind Dir Wind Speed Gust Speed Precip Events Conditions
12:58 AM 80.1 °F 84.0 °F 72.3 °F 77% 30.04 in 10.0 mi ENE 8.1 mph - N/A   Clear
1:58 AM 80.1 °F 83.8 °F 72.0 °F 76% 30.04 in 10.0 mi ENE 8.1 mph - N/A   Clear
2:58 AM 80.1 °F 84.2 °F 73.0 °F 79% 30.01 in 10.0 mi East 10.4 mph - N/A   Clear
3:58 AM 80.1 °F 84.1 °F 72.7 °F 78% 29.99 in 10.0 mi ENE 6.9 mph - N/A   Scattered Clouds
4:18 AM 80.6 °F 85.4 °F 73.4 °F 79% 29.98 in 10.0 mi East 8.1 mph - N/A   Scattered Clouds
4:58 AM 79.5 °F - 72.0 °F 78% 30.01 in 10.0 mi ESE 5.8 mph - N/A   Clear
5:33 AM 80.6 °F 85.4 °F 73.4 °F 79% 29.99 in 10.0 mi SE 5.8 mph - N/A   Mostly Cloudy
5:38 AM 80.6 °F 85.4 °F 73.4 °F 79% 29.99 in 10.0 mi SE 8.1 mph - N/A   Scattered Clouds
5:58 AM 79.5 °F - 72.3 °F 79% 30.01 in 10.0 mi SE 5.8 mph - N/A   Partly Cloudy
6:58 AM 79.7 °F - 72.0 °F 77% 30.03 in 10.0 mi SE 5.8 mph - N/A   Mostly Cloudy
7:58 AM 80.1 °F 83.6 °F 71.2 °F 74% 30.04 in 10.0 mi SE 5.8 mph - N/A   Scattered Clouds
8:58 AM 82.4 °F 86.7 °F 70.7 °F 68% 30.06 in 10.0 mi ESE 8.1 mph - N/A   Clear
9:58 AM 83.8 °F 88.6 °F 71.1 °F 65% 30.06 in 10.0 mi East 5.8 mph - N/A   Clear
10:58 AM 83.8 °F 88.3 °F 70.3 °F 64% 30.08 in 10.0 mi ENE 8.1 mph - N/A   Clear
11:58 AM 84.6 °F 89.4 °F 70.5 °F 63% 30.08 in 10.0 mi East 6.9 mph - N/A   Clear
12:58 PM 84.6 °F 89.4 °F 70.5 °F 63% 30.06 in 10.0 mi East 5.8 mph - N/A   Clear
1:58 PM 84.4 °F 89.0 °F 70.3 °F 63% 30.04 in 10.0 mi Variable 6.9 mph - N/A   Clear
2:58 PM 84.6 °F 89.4 °F 70.9 °F 63% 30.04 in 10.0 mi NE 8.1 mph - N/A   Clear
3:58 PM 84.4 °F 90.0 °F 71.8 °F 66% 30.01 in 10.0 mi NNE 8.1 mph - N/A   Clear
4:58 PM 84.0 °F 89.6 °F 72.1 °F 67% 30.01 in 10.0 mi NE 10.4 mph - N/A   Clear
5:58 PM 83.1 °F 87.6 °F 70.9 °F 66% 30.01 in 10.0 mi NE 11.5 mph - N/A   Clear
6:58 PM 81.3 °F 85.2 °F 70.9 °F 70% 30.03 in 10.0 mi NE 10.4 mph - N/A   Clear
7:58 PM 81.0 °F 84.9 °F 71.2 °F 72% 30.03 in 10.0 mi ENE 8.1 mph - N/A   Clear
8:58 PM 80.8 °F 84.7 °F 71.4 °F 73% 30.03 in 10.0 mi ENE 9.2 mph - N/A   Clear
9:58 PM 81.0 °F 84.9 °F 71.2 °F 72% 30.04 in 10.0 mi East 9.2 mph - N/A   Partly Cloudy
10:58 PM 80.8 °F 84.6 °F 70.9 °F 72% 30.04 in 10.0 mi East 9.2 mph - N/A   Clear
11:58 PM 80.4 °F 83.8 °F 70.3 °F 71% 30.06 in 10.0 mi East 9.2 mph - N/A   Clear